Wind_Speed
18 20 21 23 24 25 27 28 29 30 27 28 27 26 26 25 26 25 26 27 25 27 24 21 19 20 22 26 46 39 35 29
17 20 22 23 25 27 29 30 30 30 29 29 28 29 27 25 26 27 28 26 27 27 26 25 22 19 23 31 34 32 38 29
18 20 22 24 26 27 29 30 31 30 29 27 26 27 25 23 24 26 28 29 29 28 27 25 20 20 21 29 24 36 35 37
17 19 21 23 24 27 28 29 31 30 30 28 27 25 25 25 27 26 29 28 30 29 28 27 24 23 21 20 31 27 33 39
18 20 21 24 24 25 27 28 30 30 30 28 28 25 27 27 26 28 28 26 29 28 29 29 28 24 23 23 18 32 29 39
18 21 21 23 24 25 26 28 30 30 29 28 26 25 26 27 26 30 28 26 28 27 31 30 27 26 23 25 25 19 49 36
20 21 22 23 24 25 26 28 29 29 29 28 26 24 25 28 28 29 29 28 26 30 32 31 28 28 24 25 24 24 28 45
19 21 23 23 24 25 26 29 30 29 29 28 27 24 23 26 27 27 29 29 29 29 35 33 31 29 27 25 23 22 25 29
18 20 22 23 24 25 26 29 30 29 29 29 26 25 22 22 24 27 27 27 29 30 32 34 33 31 31 24 23 23 21 20
17 20 21 22 23 25 26 28 29 28 28 28 27 25 26 26 26 25 27 26 29 31 28 34 33 32 30 30 23 20 21 25
17 19 21 22 22 23 25 27 28 27 27 27 26 24 26 25 26 26 28 27 29 28 29 30 32 34 30 32 27 22 19 23
15 19 20 21 22 23 25 26 27 26 26 26 25 25 25 24 24 27 28 27 28 28 29 25 29 32 34 31 29 24 20 20
16 18 21 21 22 23 25 26 25 25 25 24 23 25 25 23 25 26 28 27 26 28 27 27 27 29 32 35 29 26 22 18
15 18 21 21 23 24 24 25 24 24 24 24 24 23 24 23 23 26 24 25 25 28 27 27 26 28 31 36 33 24 23 19
13 17 21 23 22 23 24 23 23 23 24 24 24 24 25 25 23 25 24 26 24 24 24 26 27 24 31 37 37 27 25 20
13 15 20 21 22 22 22 21 22 23 23 24 24 24 25 25 25 23 25 24 24 25 26 24 26 21 33 37 37 30 24 22
15 19 20 20 21 21 21 21 20 22 23 23 22 23 25 26 25 24 26 26 26 26 25 25 24 22 36 36 34 29 24 21
14 17 18 19 19 19 20 20 19 20 22 24 25 25 26 26 27 25 25 26 26 23 25 25 25 22 36 35 33 26 24 22
15 16 17 17 17 18 19 18 18 20 21 23 24 26 26 26 27 25 24 26 25 24 24 23 23 24 34 34 34 27 24 23
Wind_Direction
10 6 4 359 2 359 357 355 354 352 351 350 349 351 357 358 358 354 349 350 339 335 324 329 324 267 242 233 248 224 221 212
4 1 0 356 358 356 355 354 353 351 351 348 347 345 347 351 353 355 352 346 346 337 333 321 314 315 266 259 259 219 218 224
359 356 357 354 354 354 353 353 351 350 350 344 343 339 339 342 344 351 353 348 348 343 334 326 317 308 295 254 249 239 225 226
352 352 352 347 353 351 350 351 349 349 347 345 343 339 339 342 344 345 349 348 347 345 341 335 327 315 296 285 263 245 229 227
348 347 348 344 351 349 348 349 348 348 347 346 345 343 343 338 340 339 338 346 346 343 341 336 329 316 306 299 299 253 251 242
346 341 344 342 345 347 346 345 347 348 347 347 344 348 340 332 337 338 338 338 344 342 343 334 333 324 316 314 306 303 241 262
341 343 344 345 345 345 345 345 346 348 349 349 348 353 345 341 338 337 338 337 338 341 343 340 332 330 325 319 310 290 257 244
341 347 345 344 347 346 345 346 345 348 349 349 349 352 347 339 340 334 335 337 336 337 341 340 332 333 328 321 314 295 280 279
341 343 341 343 344 344 346 344 343 346 347 346 347 348 352 341 339 333 333 334 335 333 337 340 337 333 335 329 320 302 288 299
339 337 341 341 345 344 346 342 343 345 344 343 343 351 345 343 339 335 335 335 334 338 336 337 340 337 337 336 325 310 295 271
330 335 336 339 345 343 345 341 342 342 342 342 341 349 347 343 339 337 334 335 339 338 338 342 340 343 337 341 332 322 308 289
327 332 334 337 342 344 343 342 341 342 343 340 343 349 345 342 340 339 336 337 340 340 340 342 342 344 346 339 338 331 323 303
332 328 334 338 342 345 343 342 342 342 342 340 350 347 342 342 344 341 341 337 340 342 339 341 345 346 347 345 338 338 330 316
331 338 339 343 344 346 342 342 343 343 342 344 347 344 346 345 346 342 344 340 342 344 342 344 346 346 348 349 343 340 336 326
346 340 345 347 347 345 343 343 344 345 345 348 348 344 344 346 351 347 347 342 345 344 340 344 349 348 350 351 347 339 344 339
346 347 348 348 347 345 344 344 345 346 347 352 350 345 342 345 348 353 348 348 348 346 344 350 350 353 357 353 349 342 344 347
349 349 350 350 348 347 345 345 347 347 351 351 350 346 346 348 350 356 353 347 346 348 350 352 349 353 355 357 352 343 345 351
353 351 350 348 349 348 347 345 349 351 353 350 349 350 350 351 353 353 350 345 344 348 354 354 351 355 357 360 358 348 348 357
351 351 348 349 348 350 345 348 354 351 355 351 351 350 348 351 349 349 347 343 345 349 358 352 352 356 357 2 2 349 344 356
Height
880 878 876 873 870 867 863 858 854 849 843 838 833 829 826 822 819 814 810 806 802 797 796 787 787 790 785 787 789 792 792 790
881 879 877 875 871 867 864 859 854 850 844 840 834 829 826 823 820 816 811 807 803 798 792 790 787 780 783 782 777 775 784 785
881 880 877 875 872 869 865 860 856 851 847 843 838 832 827 824 820 817 813 807 803 801 797 794 789 786 781 778 778 774 778 779
881 880 878 875 872 870 866 862 857 852 849 844 839 833 827 823 820 816 814 809 803 800 796 792 788 785 782 778 777 771 772 775
881 879 877 875 872 870 868 864 859 854 849 845 841 834 830 825 822 819 815 810 804 800 795 792 787 784 782 776 770 765 767 764
881 879 877 874 872 870 868 864 859 855 851 847 842 837 835 827 822 819 814 810 804 799 795 790 787 783 778 773 766 762 757 758
882 879 877 874 872 870 867 864 859 855 851 847 843 839 837 830 823 819 814 808 803 797 793 788 783 781 777 771 765 756 750 748
883 880 878 875 872 870 867 863 859 855 851 847 843 839 838 832 826 820 814 808 802 795 789 785 780 776 774 769 763 756 743 733
884 882 878 875 872 869 867 863 858 854 850 846 843 839 837 833 827 821 815 810 804 796 788 783 779 773 769 766 760 752 746 736
885 882 878 874 871 869 866 863 859 855 851 846 842 840 839 833 828 821 815 809 803 797 790 780 776 771 765 761 757 751 745 739
885 880 876 872 870 868 866 864 860 856 851 847 842 839 838 834 828 820 813 807 802 796 789 782 774 769 763 756 750 746 740 734
882 878 874 871 868 866 865 863 859 856 852 847 842 841 839 835 828 821 813 806 801 795 790 784 777 771 764 756 749 742 737 731
878 874 871 868 866 865 864 862 859 856 852 847 842 842 838 833 827 822 814 806 800 794 789 784 777 771 765 757 750 743 737 732
874 872 869 867 865 864 863 861 859 855 851 847 843 840 836 831 827 822 815 808 801 794 789 783 777 770 764 759 751 745 738 733
872 870 868 867 866 865 864 862 859 855 851 846 844 839 834 829 825 821 816 809 803 797 791 785 778 771 764 755 749 743 738 732
870 869 868 867 867 866 864 862 859 856 851 847 845 840 834 828 824 821 816 810 804 798 791 785 780 774 767 758 750 743 738 731
870 870 870 869 868 867 865 862 858 855 851 848 845 839 833 827 823 820 816 811 804 798 793 788 783 776 769 761 752 745 739 733
872 872 872 871 870 868 866 862 859 856 853 849 844 838 833 828 825 822 817 812 806 800 796 790 784 778 771 763 756 749 743 737
874 874 873 872 871 869 866 862 859 857 853 850 845 840 835 830 827 823 818 812 806 801 797 792 786 780 773 765 758 752 747 740